Location: B�retswil
(47.3376°N, 8.8534°E)
Time: 08:13:09
(UTC+00:00)

NOSS 3-3 (A) - Pass Details

Date: 03 March 2021
Orbit: 816 x 1396 km, 63.4° (Epoch: 19 March)

Event Time Altitude Azimuth Distance (km) Brightness Sun altitude
Rises 20:08:05 0° 319° (NW) 3,942 8.1 -29.8°
Reaches altitude 10° 20:10:37 10° 320° (NW) 3,059 7.3 -30.2°
Maximum altitude 20:18:07 85° 50° (NE) 1,278 4.4 -31.3°
Enters shadow 20:18:42 78° 114° (ESE) 1,305 4.4 -31.4°
